Regional Weather Roundup
Issued by NWS

Home | Current Version | Previous Version | Text Only | Print | Product List | Glossary On
Versions: 1 2 3 4 5 6 7 8 9 10 11 12 13 14 15 16 17 18 19 20 21 22 23 24 25 26 27 28 29 30 31 32 33 34 35 36 37 38 39 40 41 42 43 44 45 46 47 48 49 50
000
ASUS43 KTOP 281659
RWRKS

WEATHER ROUNDUP FOR KANSAS
NATIONAL WEATHER SERVICE GOODLAND KS
1200 PM CDT TUE MAR 28 2017

NOTE:  "FAIR" INDICATES FEW OR NO CLOUDS BELOW 12,000 FEET WITH NO
SIGNIFICANT WEATHER AND/OR OBSTRUCTIONS TO VISIBILITY.

KSZ001>006-013>018-027>032-041>047-281800-
NORTHWEST KANSAS

CITY           SKY/WX    TMP DP  RH WIND       PRES   REMARKS
GOODLAND       LGT RAIN  46  46 100 SE13      29.89S
HAYS             N/A     51  44  77 E15       29.98F
HILL CITY      CLOUDY    48  47  96 E10       29.97F FOG
RUSSELL        CLOUDY    52  43  71 E17G25    29.96F
$$

KSZ061>065-074>080-084>089-281800-
SOUTHWEST KANSAS

CITY           SKY/WX    TMP DP  RH WIND       PRES   REMARKS
DODGE CITY     CLOUDY    49  45  86 E18       29.90S FOG
ELKHART          N/A     44  39  82 E10         N/A
GARDEN CITY    RAIN      46  45  96 SE7       29.93R VSB 1
GREAT BEND     CLOUDY    53  44  71 E17G24    29.96F
LIBERAL        CLOUDY    48  45  87 E9        29.87R
$$

KSZ066>073-081>083-090>101-281800-
SOUTHEAST KANSAS

CITY           SKY/WX    TMP DP  RH WIND       PRES   REMARKS
CHANUTE        CLOUDY    55  47  74 E8        30.04F
COFFEYVILLE    CLOUDY    54  48  80 E10       30.04F
MEDICINE LODGE   N/A     52  44  74 E13G20    29.94S
NEWTON         CLOUDY    51  45  79 E15       30.00F
PARSONS        CLOUDY    54  48  80 VRB6      30.05F
WICHITA INTL   CLOUDY    53  46  77 E15       29.97F
WICHITA JABRA  CLOUDY    51  46  83 E13       29.99F
WINFIELD       CLOUDY    53  47  79 E14       29.99F
$$

KSZ007>012-019>026-033>040-048>060-102>105-281800-
NORTHEAST KANSAS

CITY           SKY/WX    TMP DP  RH WIND       PRES   REMARKS
CONCORDIA      CLOUDY    52  44  74 E8        30.04F
EMPORIA        CLOUDY    51  46  83 E10       30.05S
LAWRENCE       CLOUDY    54  50  86 E8        30.08F
MANHATTAN      CLOUDY    53  42  66 E14       30.05F
OLATHE IND     CLOUDY    52  48  86 NE9       30.08F FOG
OLATHE EXE     CLOUDY    51  50  96 NE9       30.07F FOG
SALINA         CLOUDY    55  44  66 E13       30.02F
TOPEKA BILLARD CLOUDY    53  48  83 NE7       30.07F
TOPEKA FORBES  CLOUDY    54  47  77 E7        30.06F
$$



USA.gov is the U.S. government's official web portal to all federal, state and local government web resources and services.